Weather History for Daytona Beach, FL

Change the Weather History Date:

Thursday, February 13, 2014

  Actual Average Record
Temperature  
Mean Temperature 53 °F 60 °F  
Max Temperature 64 °F 71 °F 86 °F (1935)
Min Temperature 42 °F 50 °F 29 °F (2006)
Degree Days  
Heating Degree Days 12 6  
Month to date heating degree days 54 87  
Since 1 July heating degree days 448 604  
Cooling Degree Days 0 1  
Month to date cooling degree days 34 13  
Year to date cooling degree days 59 42  
Growing Degree Days 4 (Base 50)    
Moisture  
Dew Point 47 °F    
Average Humidity 73    
Maximum Humidity 90    
Minimum Humidity 55    
Precipitation  
Precipitation T in 0.09 in 3.15 in (1937)
Month to date precipitation 2.35 1.24  
Year to date precipitation 5.12 3.98  
Sea Level Pressure  
Sea Level Pressure 29.80 in    
Wind  
Wind Speed 15 mph (WSW)    
Max Wind Speed 29 mph    
Max Gust Speed 36 mph    
Visibility 10 miles    
Events Rain    
T = Trace of Precipitation, MM = Missing Value Source: NWS Daily Summary

Daily Weather History Graph

Daily Weather History Graph

Search for Another Location

Airport:

Trip Planner

Search our weather history database for the weather conditions in past years. The results will help you decide how hot, cold, wet, or windy it might be!

Date:

Astronomy

Feb. 13, 2014 Rise Set
Actual Time 7:04 AM EST 6:12 PM EST
Civil Twilight 6:40 AM EST 6:36 PM EST
Nautical Twilight 6:12 AM EST 7:04 PM EST
Astronomical Twilight 5:44 AM EST 7:32 PM EST
Moon 5:19 PM EST (2/13) 5:56 AM EST (2/13)
Length of Visible Light 11h 56m
Length of Day
11h 07m
Waxing Gibbous, 98% of the Moon is Illuminated
Feb 13
Waxing Gibbous
Feb 14
Full
Feb 22
Last Quarter
Mar 1
New
Mar 8
First Quarter

Hourly Weather History & Observations

Time (EST) Temp. Windchill Dew Point Humidity Pressure Visibility Wind Dir Wind Speed Gust Speed Precip Events Conditions
12:20 AM 59.0 °F - 57.0 °F 93% 29.68 in 10.0 mi SSW 9.2 mph - N/A   Overcast
12:53 AM 60.1 °F - 57.0 °F 90% 29.68 in 10.0 mi SSW 9.2 mph - N/A   Overcast
1:32 AM 61.0 °F - 57.9 °F 90% 29.67 in 10.0 mi SSW 9.2 mph - N/A   Overcast
1:53 AM 62.1 °F - 59.0 °F 90% 29.67 in 10.0 mi SSW 10.4 mph - N/A   Overcast
2:53 AM 64.0 °F - 60.1 °F 87% 29.66 in 10.0 mi SW 15.0 mph - 0.00 in Rain Light Rain
3:27 AM 63.0 °F - 59.0 °F 87% 29.66 in 7.0 mi WSW 18.4 mph 29.9 mph 0.00 in Rain Rain
3:53 AM 62.1 °F - 57.9 °F 86% 29.68 in 10.0 mi WSW 17.3 mph 24.2 mph 0.00 in   Overcast
4:53 AM 61.0 °F - 55.0 °F 81% 29.68 in 10.0 mi West 17.3 mph 28.8 mph 0.00 in Rain Light Rain
5:01 AM 60.1 °F - 55.0 °F 83% 29.68 in 10.0 mi West 16.1 mph 28.8 mph 0.00 in Rain Light Rain
5:53 AM 59.0 °F - 52.0 °F 78% 29.71 in 10.0 mi WSW 19.6 mph 29.9 mph 0.00 in   Overcast
6:13 AM 57.9 °F - 51.1 °F 78% 29.73 in 10.0 mi West 18.4 mph 29.9 mph 0.00 in   Overcast
6:53 AM 55.9 °F - 48.9 °F 77% 29.75 in 10.0 mi West 23.0 mph 28.8 mph 0.00 in   Overcast
7:53 AM 53.1 °F - 46.0 °F 77% 29.78 in 10.0 mi West 19.6 mph 28.8 mph N/A   Overcast
8:53 AM 53.1 °F - 44.1 °F 71% 29.81 in 10.0 mi West 18.4 mph 25.3 mph N/A   Mostly Cloudy
9:53 AM 53.1 °F - 44.1 °F 71% 29.82 in 10.0 mi West 18.4 mph 23.0 mph N/A   Overcast
10:53 AM 54.0 °F - 43.0 °F 66% 29.83 in 10.0 mi WSW 23.0 mph 32.2 mph N/A   Mostly Cloudy
11:53 AM 54.0 °F - 43.0 °F 66% 29.84 in 10.0 mi West 20.7 mph 27.6 mph N/A   Mostly Cloudy
12:53 PM 54.0 °F - 43.0 °F 66% 29.83 in 10.0 mi West 20.7 mph 29.9 mph N/A   Mostly Cloudy
1:53 PM 53.1 °F - 39.9 °F 61% 29.83 in 10.0 mi West 21.9 mph 31.1 mph N/A   Mostly Cloudy
2:04 PM 53.1 °F - 39.9 °F 61% 29.83 in 10.0 mi West 20.7 mph 34.5 mph N/A   Scattered Clouds
2:53 PM 55.9 °F - 41.0 °F 57% 29.82 in 10.0 mi West 18.4 mph 24.2 mph N/A   Partly Cloudy
3:53 PM 55.9 °F - 39.9 °F 55% 29.82 in 10.0 mi West 15.0 mph - N/A   Partly Cloudy
4:53 PM 55.9 °F - 39.0 °F 53% 29.83 in 10.0 mi West 15.0 mph 21.9 mph N/A   Clear
5:53 PM 54.0 °F - 39.0 °F 57% 29.87 in 10.0 mi West 12.7 mph - N/A   Clear
6:53 PM 50.0 °F - 39.0 °F 66% 29.89 in 10.0 mi West 8.1 mph - N/A   Partly Cloudy
7:53 PM 48.0 °F - 39.9 °F 74% 29.93 in 10.0 mi West 9.2 mph - N/A   Clear
8:53 PM 46.9 °F - 39.9 °F 77% 29.96 in 10.0 mi West 6.9 mph - N/A   Clear
9:53 PM 45.0 °F 39.7 °F 39.0 °F 80% 29.98 in 10.0 mi West 10.4 mph - N/A   Clear
10:53 PM 44.1 °F 39.5 °F 37.9 °F 79% 29.99 in 10.0 mi West 8.1 mph - N/A   Clear
11:53 PM 42.1 °F 38.4 °F 37.9 °F 85% 29.99 in 10.0 mi WSW 5.8 mph - N/A   Clear